THORAD AGENA D DEB

Satellite information

Favourite Embed

Satellite Type and Status

DEBRISIN ORBIT

Key statistics

Satellite THORAD AGENA D DEB at a glance.

Uptime

20295

Days in orbit

Revolutions

≈ 12.7

Per day

Orbit

SSO

Sun Synchronous Orbit

Inclination

100.2

Latest

Satellite identification and parameters

Extended collection of information and parameters for THORAD AGENA D DEB.

Object identification

Identified? True

Debris? True

Object name: THORAD AGENA D DEB

International designator: 1970-025RR

Object number (NORAD): 42511

Object ID (CCSDS): 42511

Country: UNITED STATES OF AMERICA (US)

Current information (Y/N): Y

RCS size: SMALL

Orbital parameters

Period: 113.162 minutes

Inclination: 100.1769 deg

SMA: 7749.872 km

Apoapsis: 1724.04 km

Periapsis: 1019.435 km

RAAN: 212.7464 deg

Eccentricy: 0.04545916

Argument of periapsis: 152.3954 deg

Mean anomaly: 210.2085 deg

Mean motion: 12.72509219 rev/day

Mean motion (dot): 0.00001026 rev/day2

B* drag term: 0.0034005914 1/REarth

Two-line elements (TLE)

Creation date: Oct. 23, 2025, 6:40 p.m.

Reference frame: TEME

Reference center: EARTH

Epoch: Oct. 22, 2025, 11:53 p.m. UTC

TLE line 0: 0 THORAD AGENA D DEB

TLE line 1: 1 42511U 70025RR 25295.99566446 .00001026 00000-0 34006-2 0 9993

TLE line 2: 2 42511 100.1769 212.7464 0454592 152.3954 210.2085 12.72509219552809

Live tracking on map

Real-time ground track for satellite THORAD AGENA D DEB.

In-orbit conjunctions

A list of the most updated potential collisions computed for object THORAD AGENA D DEB.

Target Orbit TCA Probability of collision Miss distance Type
THORAD AGENA D DEB SSO 2025-10-17 22:04:33 0.0003079104 117.0 (m) DEBRIS
DELTA 1 DEB SSO 2024-10-01 21:13:41 0.0002095462 110.0 (m) DEBRIS

Associated space launch

Meteorological research and development satellite

THORAD AGENA D DEB was lifted into orbit during the mission ‘Thorad SLV-2G Agena D | Nimbus 4’, on board a Thorad SLV-2G Agena D space rocket.

The launch took place on April 8, 1970, 8:17 a.m. from Space Launch Complex 2E.

For more information about the launch, click the button.

Launch to space Thorad SLV-2G Agena D | Nimbus 4
Thorad SLV-2G Agena D | Nimbus 4

Agency: N/A

Status: Launch Successful

Launch date: April 8, 1970, 8:17 a.m. UTC

Rocket: Thorad SLV-2G Agena D

Launch pad: Space Launch Complex 2E

Location: Vandenberg SFB, CA, USA

...

Latest news about this satellite

There are no fresh news available about this satellite. Check back as we update our databases every day.


Newsletter sign-up

Weekly statistics, charts and insights to help you stay on top of the space industry.